Beale AFB, CA

5:08 PM PST on November 22, 2017 (GMT -0800)
Beale Air Force Base

Weather History for KBAB - March, 2013

Change the Weather History Date:

Saturday, March 30, 2013

  Actual Average Record
Temperature  
Mean Temperature 62 °F -  
Max Temperature 75 °F 66 °F 82 °F (2001)
Min Temperature 48 °F 45 °F 39 °F (1999)
Degree Days  
Heating Degree Days 4    
Growing Degree Days 12 (Base 50)    
Moisture  
Dew Point 50 °F    
Average Humidity 65    
Maximum Humidity 94    
Minimum Humidity 44    
Precipitation  
Precipitation 0.00 in - - ()
Sea Level Pressure  
Sea Level Pressure 30.16 in    
Wind  
Wind Speed 5 mph (South)    
Max Wind Speed 10 mph    
Max Gust Speed -    
Visibility 10 miles    
Events Rain    
Averages and records for this station are not official NWS values.
T = Trace of Precipitation, MM = Missing Value Source: NWS Daily Summary

Daily Weather History Graph

Daily Weather History Graph

Search for Another Location

Airport or City:

Trip Planner

Search our weather history database for the weather conditions in past years. The results will help you decide how hot, cold, wet, or windy it might be!

Date:

Astronomy

Mar. 30, 2013 Rise Set
Actual Time 6:52 AM PDT 7:27 PM PDT
Civil Twilight 6:25 AM PDT 7:54 PM PDT
Nautical Twilight 5:54 AM PDT 8:26 PM PDT
Astronomical Twilight 5:21 AM PDT 8:59 PM PDT
Moon 11:38 PM PDT (3/30) 8:54 AM PDT (3/30)
Length of Visible Light 13h 28m
Length of Day
12h 35m
Waning Gibbous, 85% of the Moon is Illuminated
Mar 30
Waning Gibbous
Apr 2
Last Quarter
Apr 10
New
Apr 18
First Quarter
Apr 25
Full

Hourly Weather History & Observations

Time (PDT) Temp. Dew Point Humidity Pressure Visibility Wind Dir Wind Speed Gust Speed Precip Events Conditions
12:58 AM 57.7 °F 47.3 °F 68% 30.01 in 10.0 mi NNE 6.9 mph - N/A   Clear
1:58 AM 58.1 °F 47.5 °F 68% 30.01 in 10.0 mi Variable 1.2 mph - N/A   Clear
2:58 AM 55.2 °F 47.8 °F 76% 30.01 in 10.0 mi NNW 1.2 mph - N/A   Overcast
3:58 AM 48.4 °F 45.3 °F 89% 30.00 in 10.0 mi Calm Calm - N/A   Overcast
4:58 AM 48.4 °F 45.3 °F 89% 30.22 in 10.0 mi NNE 2.3 mph - N/A   Mostly Cloudy
5:58 AM 48.7 °F 46.9 °F 93% 30.22 in 10.0 mi NNW 5.8 mph - N/A   Mostly Cloudy
6:58 AM 50.9 °F 49.1 °F 94% 30.24 in 10.0 mi NNE 2.3 mph - N/A   Overcast
7:58 AM 54.9 °F 50.0 °F 84% 30.25 in 10.0 mi East 2.3 mph - N/A   Overcast
8:58 AM 59.7 °F 49.5 °F 69% 30.24 in 10.0 mi Calm Calm - N/A   Overcast
9:58 AM 63.0 °F 50.2 °F 63% 30.25 in 10.0 mi SW 6.9 mph - N/A   Overcast
10:58 AM 65.5 °F 51.8 °F 61% 30.26 in 10.0 mi SSW 5.8 mph - N/A   Overcast
11:58 AM 68.2 °F 52.0 °F 56% 30.26 in 10.0 mi SSE 5.8 mph - N/A   Overcast
12:58 PM 71.1 °F 52.2 °F 51% 30.25 in 10.0 mi SSW 5.8 mph - N/A   Overcast
1:58 PM 72.1 °F 51.3 °F 48% 30.22 in 10.0 mi SE 5.8 mph - N/A   Overcast
2:58 PM 73.9 °F 53.2 °F 48% 30.19 in 10.0 mi SSE 6.9 mph - N/A   Overcast
3:58 PM 74.8 °F 53.4 °F 47% 30.19 in 10.0 mi South 9.2 mph - N/A   Overcast
4:58 PM 75.2 °F 52.0 °F 44% 30.18 in 10.0 mi SSE 10.4 mph - N/A   Overcast
5:58 PM 71.8 °F 53.8 °F 53% 30.17 in 10.0 mi South 5.8 mph - N/A   Overcast
6:16 PM 69.8 °F 55.4 °F 60% 29.94 in 10.0 mi SSE 4.6 mph - N/A Rain Light Rain
6:26 PM 69.8 °F 53.6 °F 56% 29.94 in 10.0 mi SE 6.9 mph - N/A   Mostly Cloudy
6:58 PM 69.6 °F 52.5 °F 54% 30.17 in 10.0 mi SW 5.8 mph - 0.00 in   Mostly Cloudy
7:58 PM 66.6 °F 50.5 °F 56% 30.18 in 10.0 mi SW 3.5 mph - N/A   Overcast
8:58 PM 65.5 °F 49.8 °F 57% 30.19 in 10.0 mi WSW 5.8 mph - N/A   Overcast
9:58 PM 61.3 °F 49.3 °F 65% 30.21 in 10.0 mi SSE 6.9 mph - N/A   Overcast
10:58 PM 59.0 °F 49.5 °F 71% 30.21 in 10.0 mi SSE 6.9 mph - N/A   Mostly Cloudy
11:58 PM 59.0 °F 52.0 °F 78% 30.22 in 10.0 mi South 5.8 mph - N/A   Overcast